Station Historical Data
Daily Summary for June 30, 2017 Units:  English    Metric   Both
« Previous Day
Next Day »
Daily Weekly Monthly Yearly Custom
  High: Low: Average:
Temperature: 78.7 °F 69.4 °F 72.3 °F
Dew Point: 73.4 °F 67.3 °F 69.9 °F
Humidity: 95% 81% 92%
Wind Speed: 5.1mph 0.0mph 3.9mph
Wind Gust: 5.1mph - -
Wind- - South
Pressure: 30.11 in 30.00 in -
Precipitation: 0.06 in    
Historical Graphs
 
 
Tabular Data for June 30, 2017
Time Temperature Dew Point Pressure Wind Wind Speed Wind Gust Humidity Rainfall Rate (Hourly) solar Conditions
00:00 70.4 °F 68.5 °F 30.09 in Calm   1.0 mph 94% 0.01 in WeatherDisplay:10.37 W/m2 -DZ
00:05 70.4 °F 68.6 °F 30.09 in Calm   1.0 mph 94% 0.00 in WeatherDisplay:10.37 W/m2 -DZ
00:10 70.4 °F 68.6 °F 30.09 in Calm   1.0 mph 94% 0.00 in WeatherDisplay:10.37 W/m2 -DZ
00:15 70.4 °F 68.6 °F 30.09 in Calm   1.0 mph 94% 0.00 in WeatherDisplay:10.37 W/m2 -DZ
00:20 70.4 °F 68.6 °F 30.09 in NNW 5.1 mph   94% 0.01 in WeatherDisplay:10.37 W/m2 -DZ
00:25 70.4 °F 68.6 °F 30.09 in Calm   1.0 mph 94% 0.00 in WeatherDisplay:10.37 W/m2 -DZ
00:30 70.5 °F 68.7 °F 30.09 in NNW 5.1 mph   94% 0.02 in WeatherDisplay:10.37 W/m2 -DZ
00:35 70.4 °F 68.6 °F 30.09 in Calm     94% 0.00 in WeatherDisplay:10.37 W/m2 -DZ
00:40 70.5 °F 68.7 °F 30.09 in Calm     94% 0.00 in WeatherDisplay:10.37 W/m2 -DZ
00:45 70.5 °F 68.7 °F 30.09 in Calm   1.0 mph 94% 0.00 in WeatherDisplay:10.37 W/m2 -DZ
00:50 70.5 °F 68.7 °F 30.09 in Calm   1.0 mph 94% 0.00 in WeatherDisplay:10.37 W/m2 -DZ
00:55 70.4 °F 68.6 °F 30.09 in Calm   1.0 mph 94% 0.00 in WeatherDisplay:10.37 W/m2 -DZ
00:59 70.4 °F 68.6 °F 30.09 in NNW 5.1 mph   94% 0.02 in WeatherDisplay:10.37 W/m2 -DZ
01:04 70.4 °F 68.6 °F 30.09 in NNW 5.1 mph   94% 0.02 in WeatherDisplay:10.37 W/m2 -DZ
01:09 70.4 °F 68.6 °F 30.09 in NNW 5.1 mph   94% 0.02 in WeatherDisplay:10.37 W/m2 -DZ
01:14 70.4 °F 68.6 °F 30.09 in NNW 5.1 mph   94% 0.02 in WeatherDisplay:10.37 W/m2 -DZ
01:19 70.4 °F 68.6 °F 30.09 in NNW 5.1 mph   94% 0.02 in WeatherDisplay:10.37 W/m2 -DZ
01:24 70.4 °F 68.6 °F 30.09 in NNW 5.1 mph   94% 0.03 in WeatherDisplay:10.37 W/m2 -DZ
01:29 69.4 °F 67.3 °F 30.09 in NNW 5.1 mph   93% 0.02 in WeatherDisplay:10.37 W/m2 -DZ
01:34 69.4 °F 67.9 °F 30.09 in NNW 5.1 mph   95% 0.02 in WeatherDisplay:10.37 W/m2 -DZ
01:36 69.4 °F 67.9 °F 30.09 in NNW 5.1 mph   95% 0.02 in WeatherDisplay:10.37 W/m2 -DZ
01:41 69.4 °F 67.9 °F 30.09 in NNE 5.1 mph   95% 0.02 in WeatherDisplay:10.37 W/m2 -DZ
01:46 69.4 °F 67.9 °F 30.09 in North 5.1 mph   95% 0.02 in WeatherDisplay:10.37 W/m2 -DZ
01:51 69.4 °F 67.9 °F 30.09 in North 5.1 mph   95% 0.02 in WeatherDisplay:10.37 W/m2 -DZ
01:56 69.4 °F 67.9 °F 30.09 in North 5.1 mph   95% 0.01 in WeatherDisplay:10.37 W/m2 -DZ
02:01 69.4 °F 67.9 °F 30.09 in North 5.1 mph   95% 0.01 in WeatherDisplay:10.37 W/m2 -DZ
02:06 69.4 °F 67.9 °F 30.09 in North 5.1 mph   95% 0.01 in WeatherDisplay:10.37 W/m2 -DZ
02:11 69.4 °F 67.9 °F 30.09 in North 5.1 mph   95% 0.01 in WeatherDisplay:10.37 W/m2 -DZ
02:16 69.4 °F 67.9 °F 30.09 in North 5.1 mph   95% 0.01 in WeatherDisplay:10.37 W/m2 -DZ
02:21 69.4 °F 67.9 °F 30.09 in North 5.1 mph   95% 0.01 in WeatherDisplay:10.37 W/m2 -DZ
02:26 69.4 °F 67.9 °F 30.08 in North 5.1 mph   95% 0.00 in WeatherDisplay:10.37 W/m2 -DZ
02:31 69.4 °F 67.9 °F 30.08 in North 5.1 mph   95% 0.00 in WeatherDisplay:10.37 W/m2 -DZ
02:36 69.4 °F 67.9 °F 30.08 in North 5.1 mph   95% 0.00 in WeatherDisplay:10.37 W/m2 -DZ
02:41 69.4 °F 67.9 °F 30.08 in North 5.1 mph   95% 0.00 in WeatherDisplay:10.37 W/m2 -DZ
02:46 69.4 °F 67.9 °F 30.08 in North 5.1 mph   95% 0.00 in WeatherDisplay:10.37 W/m2 -DZ
02:52 69.4 °F 67.9 °F 30.08 in North 5.1 mph   95% 0.00 in WeatherDisplay:10.37 W/m2 -DZ
02:57 69.4 °F 67.9 °F 30.08 in North 5.1 mph   95% 0.00 in WeatherDisplay:10.37 W/m2 -DZ
03:02 69.4 °F 67.9 °F 30.08 in North 5.1 mph   95% 0.00 in WeatherDisplay:10.37 W/m2 -DZ
03:07 69.4 °F 67.9 °F 30.08 in North 5.1 mph   95% 0.00 in WeatherDisplay:10.37 W/m2 -DZ
03:12 69.4 °F 67.9 °F 30.08 in North 5.1 mph   95% 0.00 in WeatherDisplay:10.37 W/m2 OVC
03:17 69.4 °F 67.9 °F 30.07 in North 5.1 mph   95% 0.00 in WeatherDisplay:10.37 W/m2 OVC
03:22 69.4 °F 67.9 °F 30.08 in North 5.1 mph   95% 0.00 in WeatherDisplay:10.37 W/m2 -DZ
03:27 69.4 °F 67.9 °F 30.07 in North 5.1 mph   95% 0.00 in WeatherDisplay:10.37 W/m2 -DZ
03:32 69.4 °F 67.9 °F 30.07 in North 5.1 mph   95% 0.00 in WeatherDisplay:10.37 W/m2 -DZ
03:37 69.4 °F 67.9 °F 30.07 in North 5.1 mph   95% 0.00 in WeatherDisplay:10.37 W/m2 -DZ
03:42 69.4 °F 67.9 °F 30.07 in North 5.1 mph   95% 0.00 in WeatherDisplay:10.37 W/m2 -DZ
03:47 69.4 °F 67.9 °F 30.07 in North 5.1 mph   95% 0.00 in WeatherDisplay:10.37 W/m2 -DZ
03:52 69.4 °F 67.9 °F 30.07 in North 5.1 mph   95% 0.00 in WeatherDisplay:10.37 W/m2 -DZ
03:57 69.4 °F 67.9 °F 30.07 in North 5.1 mph   95% 0.00 in WeatherDisplay:10.37 W/m2 -DZ
04:02 69.4 °F 67.9 °F 30.07 in North 5.1 mph   95% 0.00 in WeatherDisplay:10.37 W/m2 -DZ
04:07 69.4 °F 67.9 °F 30.07 in North 5.1 mph   95% 0.00 in WeatherDisplay:10.37 W/m2 -DZ
04:12 69.4 °F 67.9 °F 30.07 in North 5.1 mph   95% 0.00 in WeatherDisplay:10.37 W/m2 -DZ
04:17 69.4 °F 67.9 °F 30.07 in North 5.1 mph   95% 0.00 in WeatherDisplay:10.37 W/m2 -DZ
04:23 69.4 °F 67.9 °F 30.07 in North 5.1 mph   95% 0.00 in WeatherDisplay:10.37 W/m2 -RA
04:28 69.4 °F 67.9 °F 30.07 in North 5.1 mph   95% 0.00 in WeatherDisplay:10.37 W/m2 -RA
04:33 69.4 °F 67.9 °F 30.07 in North 5.1 mph   95% 0.00 in WeatherDisplay:10.37 W/m2 -RA
04:38 69.4 °F 67.9 °F 30.06 in North 5.1 mph   95% 0.00 in WeatherDisplay:10.37 W/m2 -RA
04:43 69.4 °F 67.9 °F 30.06 in North 5.1 mph   95% 0.00 in WeatherDisplay:10.37 W/m2 -RA
04:48 69.4 °F 67.9 °F 30.06 in North 5.1 mph   95% 0.00 in WeatherDisplay:10.37 W/m2 -RA
04:53 69.4 °F 67.9 °F 30.06 in North 5.1 mph   95% 0.00 in WeatherDisplay:10.37 W/m2 -DZ
04:58 69.4 °F 67.9 °F 30.06 in North 5.1 mph   95% 0.00 in WeatherDisplay:10.37 W/m2 -DZ
05:03 69.4 °F 67.9 °F 30.06 in North 5.1 mph   95% 0.00 in WeatherDisplay:10.37 W/m2 -DZ
05:08 69.4 °F 67.9 °F 30.06 in North 5.1 mph   95% 0.00 in WeatherDisplay:10.37 W/m2 -DZ
05:13 69.4 °F 67.9 °F 30.06 in North 5.1 mph   95% 0.00 in WeatherDisplay:10.37 W/m2 -RA
05:18 69.4 °F 67.9 °F 30.06 in North 5.1 mph   95% 0.00 in WeatherDisplay:10.37 W/m2 -RA
05:23 69.4 °F 67.9 °F 30.06 in North 5.1 mph   95% 0.00 in WeatherDisplay:10.37 W/m2 -RA
05:28 69.4 °F 67.9 °F 30.06 in North 5.1 mph   95% 0.00 in WeatherDisplay:10.37 W/m2 -RA
05:29 69.4 °F 67.9 °F 30.06 in North 5.1 mph   95% 0.00 in WeatherDisplay:10.37 W/m2 -RA
05:34 69.4 °F 67.9 °F 30.06 in North 5.1 mph   95% 0.00 in WeatherDisplay:10.37 W/m2 -RA
05:40 69.4 °F 67.9 °F 30.06 in North 5.1 mph   95% 0.00 in WeatherDisplay:10.37 W/m2 -RA
05:45 69.4 °F 67.9 °F 30.06 in Calm     95% 0.00 in WeatherDisplay:10.37 W/m2 -RA
05:50 69.4 °F 67.9 °F 30.06 in Calm     95% 0.00 in WeatherDisplay:10.37 W/m2 -RA
05:55 69.4 °F 67.9 °F 30.06 in North 5.1 mph   95% 0.00 in WeatherDisplay:10.37 W/m2 -RA
06:00 69.4 °F 67.9 °F 30.06 in North 5.1 mph   95% 0.00 in WeatherDisplay:10.37 W/m2 -RA
06:05 69.4 °F 67.9 °F 30.06 in Calm     95% 0.00 in WeatherDisplay:10.37 W/m2 -RA
06:10 69.4 °F 67.9 °F 30.06 in North 5.1 mph   95% 0.00 in WeatherDisplay:10.37 W/m2 -RA
06:15 69.4 °F 67.9 °F 30.06 in Calm     95% 0.00 in WeatherDisplay:10.37 W/m2 -RA
06:18 69.4 °F 67.9 °F 30.06 in North 5.1 mph   95% 0.00 in WeatherDisplay:10.37 W/m2 -RA
06:23 69.4 °F 67.9 °F 30.06 in North 5.1 mph   95% 0.00 in WeatherDisplay:10.37 W/m2 -RA
06:28 69.4 °F 67.9 °F 30.06 in North 5.1 mph   95% 0.00 in WeatherDisplay:10.37 W/m2 -RA
06:33 69.4 °F 67.9 °F 30.06 in North 5.1 mph   95% 0.00 in WeatherDisplay:10.37 W/m2 -RA
06:38 69.4 °F 67.9 °F 30.07 in North 5.1 mph   95% 0.00 in WeatherDisplay:10.37 W/m2 -RA
06:43 69.4 °F 67.9 °F 30.07 in North 5.1 mph   95% 0.00 in WeatherDisplay:10.37 W/m2 OVC
06:48 69.4 °F 67.9 °F 30.07 in North 5.1 mph   95% 0.00 in WeatherDisplay:10.37 W/m2 OVC
06:53 69.4 °F 67.9 °F 30.07 in North 5.1 mph   95% 0.00 in WeatherDisplay:10.37 W/m2 OVC
06:58 69.4 °F 67.9 °F 30.07 in North 5.1 mph   95% 0.00 in WeatherDisplay:10.37 W/m2 OVC
07:03 69.4 °F 67.9 °F 30.07 in North 5.1 mph   95% 0.00 in WeatherDisplay:10.37 W/m2 OVC
07:09 69.4 °F 67.9 °F 30.08 in North 5.1 mph   95% 0.00 in WeatherDisplay:10.37 W/m2 OVC
07:14 69.4 °F 67.9 °F 30.08 in North 5.1 mph   95% 0.00 in WeatherDisplay:10.37 W/m2 OVC
07:19 69.4 °F 67.9 °F 30.08 in North 5.1 mph   95% 0.00 in WeatherDisplay:10.37 W/m2 OVC
07:24 69.4 °F 67.9 °F 30.08 in North 5.1 mph   95% 0.00 in WeatherDisplay:10.37 W/m2 OVC
07:29 69.4 °F 67.9 °F 30.08 in North 5.1 mph   95% 0.00 in WeatherDisplay:10.37 W/m2 OVC
07:34 69.4 °F 67.9 °F 30.08 in North 5.1 mph   95% 0.00 in WeatherDisplay:10.37 W/m2 OVC
07:39 69.4 °F 67.9 °F 30.08 in North 5.1 mph   95% 0.00 in WeatherDisplay:10.37 W/m2 OVC
07:44 69.4 °F 67.9 °F 30.08 in North 5.1 mph   95% 0.00 in WeatherDisplay:10.37 W/m2 -DZ
07:49 69.4 °F 67.9 °F 30.08 in North 5.1 mph   95% 0.00 in WeatherDisplay:10.37 W/m2 -DZ
07:54 69.4 °F 67.9 °F 30.08 in North 5.1 mph   95% 0.00 in WeatherDisplay:10.37 W/m2 -DZ
07:59 69.4 °F 67.9 °F 30.08 in North 5.1 mph   95% 0.00 in WeatherDisplay:10.37 W/m2 -DZ
08:04 69.4 °F 67.9 °F 30.09 in North 5.1 mph   95% 0.00 in WeatherDisplay:10.37 W/m2 -DZ
08:10 69.4 °F 67.9 °F 30.09 in North 5.1 mph   95% 0.00 in WeatherDisplay:10.37 W/m2 -DZ
08:15 69.4 °F 67.9 °F 30.09 in Calm     95% 0.00 in WeatherDisplay:10.37 W/m2 -DZ
08:20 69.4 °F 67.9 °F 30.09 in Calm     95% 0.00 in WeatherDisplay:10.37 W/m2 -DZ
08:25 69.4 °F 67.9 °F 30.09 in North 5.1 mph   95% 0.00 in WeatherDisplay:10.37 W/m2 -DZ
08:30 69.4 °F 67.9 °F 30.09 in Calm     95% 0.00 in WeatherDisplay:10.37 W/m2 -DZ
08:35 69.4 °F 67.9 °F 30.09 in North 5.1 mph   95% 0.00 in WeatherDisplay:10.37 W/m2 -DZ
08:40 69.4 °F 67.9 °F 30.09 in Calm     95% 0.00 in WeatherDisplay:10.37 W/m2 -DZ
08:45 69.4 °F 67.9 °F 30.09 in Calm     95% 0.00 in WeatherDisplay:10.37 W/m2 -DZ
08:50 69.4 °F 67.9 °F 30.09 in Calm     95% 0.00 in WeatherDisplay:10.37 W/m2 -DZ
08:55 69.4 °F 67.9 °F 30.10 in Calm     95% 0.00 in WeatherDisplay:10.37 W/m2 -DZ
09:00 69.4 °F 67.9 °F 30.10 in Calm     95% 0.00 in WeatherDisplay:10.37 W/m2 -DZ
09:05 69.4 °F 67.9 °F 30.10 in Calm     95% 0.00 in WeatherDisplay:10.37 W/m2 -DZ
09:10 69.4 °F 67.9 °F 30.10 in Calm     95% 0.00 in WeatherDisplay:10.37 W/m2 -DZ
09:15 69.4 °F 67.9 °F 30.10 in Calm     95% 0.00 in WeatherDisplay:10.37 W/m2 OVC
09:20 69.4 °F 67.9 °F 30.10 in Calm     95% 0.00 in WeatherDisplay:10.37 W/m2 OVC
09:25 69.4 °F 67.9 °F 30.10 in North 5.1 mph   95% 0.00 in WeatherDisplay:10.37 W/m2 -RA
09:30 69.4 °F 67.9 °F 30.10 in Calm     95% 0.00 in WeatherDisplay:10.37 W/m2 -RA
09:35 69.4 °F 67.9 °F 30.10 in North 5.1 mph   95% 0.00 in WeatherDisplay:10.37 W/m2 -RA
09:40 69.4 °F 67.9 °F 30.10 in Calm     95% 0.00 in WeatherDisplay:10.37 W/m2 -RA
09:45 69.4 °F 67.9 °F 30.11 in Calm     95% 0.00 in WeatherDisplay:10.37 W/m2 OVC
09:50 69.4 °F 67.9 °F 30.11 in Calm     95% 0.00 in WeatherDisplay:10.37 W/m2 OVC
09:55 69.4 °F 67.9 °F 30.11 in North 5.1 mph   95% 0.00 in WeatherDisplay:10.37 W/m2 OVC
10:00 69.4 °F 67.9 °F 30.10 in Calm     95% 0.00 in WeatherDisplay:10.37 W/m2 OVC
10:05 69.4 °F 67.9 °F 30.10 in Calm     95% 0.00 in WeatherDisplay:10.37 W/m2 OVC
10:10 69.4 °F 67.9 °F 30.10 in North 5.1 mph   95% 0.00 in WeatherDisplay:10.37 W/m2 OVC
10:15 69.4 °F 67.9 °F 30.10 in Calm     95% 0.00 in WeatherDisplay:10.37 W/m2 OVC
10:20 69.4 °F 67.9 °F 30.10 in Calm     95% 0.00 in WeatherDisplay:10.37 W/m2 OVC
10:25 69.4 °F 67.9 °F 30.10 in Calm     95% 0.00 in WeatherDisplay:10.37 W/m2 -RA
10:30 69.4 °F 67.9 °F 30.10 in Calm     95% 0.00 in WeatherDisplay:10.37 W/m2 -RA
10:35 69.4 °F 67.9 °F 30.10 in Calm     95% 0.00 in WeatherDisplay:10.37 W/m2 -RA
10:40 69.4 °F 67.9 °F 30.10 in North 5.1 mph   95% 0.00 in WeatherDisplay:10.37 W/m2 -RA
10:45 69.5 °F 68.0 °F 30.10 in Calm     95% 0.00 in WeatherDisplay:10.37 W/m2 -RA
10:50 72.7 °F 70.8 °F 30.10 in Calm     94% 0.00 in WeatherDisplay:10.37 W/m2 -RA
10:55 72.8 °F 71.0 °F 30.10 in Calm   1.0 mph 94% 0.00 in WeatherDisplay:10.37 W/m2 -RA
11:00 72.9 °F 71.1 °F 30.10 in Calm   1.0 mph 94% 0.00 in WeatherDisplay:10.37 W/m2 -RA
11:05 72.7 °F 70.9 °F 30.10 in Calm     94% 0.00 in WeatherDisplay:10.37 W/m2 -RA
11:10 72.6 °F 70.8 °F 30.09 in Calm     94% 0.00 in WeatherDisplay:10.37 W/m2 -RA
11:15 72.6 °F 70.8 °F 30.09 in Calm   1.0 mph 94% 0.00 in WeatherDisplay:10.37 W/m2 OVC
11:20 72.7 °F 70.9 °F 30.09 in NNW 5.1 mph   94% 0.00 in WeatherDisplay:10.37 W/m2 OVC
11:25 72.6 °F 70.8 °F 30.09 in Calm   1.0 mph 94% 0.00 in WeatherDisplay:10.37 W/m2 OVC
11:30 72.6 °F 70.8 °F 30.09 in Calm     94% 0.00 in WeatherDisplay:10.37 W/m2 OVC
11:35 72.5 °F 70.7 °F 30.09 in Calm   1.0 mph 94% 0.00 in WeatherDisplay:10.37 W/m2 OVC
11:40 72.6 °F 70.8 °F 30.09 in NNW 5.1 mph   94% 0.00 in WeatherDisplay:10.37 W/m2 OVC
11:45 72.7 °F 70.9 °F 30.09 in Calm     94% 0.00 in WeatherDisplay:10.37 W/m2 OVC
11:50 72.7 °F 70.9 °F 30.08 in SSW 5.1 mph 5.1 mph 94% 0.00 in WeatherDisplay:10.37 W/m2 OVC
11:55 72.7 °F 70.9 °F 30.09 in Calm   2.0 mph 94% 0.00 in WeatherDisplay:10.37 W/m2 OVC
12:00 72.7 °F 70.8 °F 30.09 in Calm   1.0 mph 94% 0.01 in WeatherDisplay:10.37 W/m2 RA
12:05 72.5 °F 70.7 °F 30.09 in Calm   1.0 mph 94% 0.00 in WeatherDisplay:10.37 W/m2 OVC
12:10 72.4 °F 70.6 °F 30.09 in Calm   1.0 mph 94% 0.00 in WeatherDisplay:10.37 W/m2 OVC
12:15 72.4 °F 70.6 °F 30.09 in Calm   1.0 mph 94% 0.00 in WeatherDisplay:10.37 W/m2 OVC
12:20 72.5 °F 70.7 °F 30.09 in Calm     94% 0.00 in WeatherDisplay:10.37 W/m2 OVC
12:25 72.7 °F 70.8 °F 30.09 in Calm     94% 0.00 in WeatherDisplay:10.37 W/m2 OVC
12:30 72.6 °F 70.8 °F 30.09 in Calm   3.0 mph 94% 0.00 in WeatherDisplay:10.37 W/m2 OVC
12:35 72.6 °F 70.8 °F 30.09 in Calm   1.0 mph 94% 0.00 in WeatherDisplay:10.37 W/m2 OVC
12:40 72.6 °F 70.8 °F 30.09 in Calm   1.0 mph 94% 0.00 in WeatherDisplay:10.37 W/m2 OVC
12:45 72.4 °F 70.6 °F 30.09 in Calm   1.0 mph 94% 0.00 in WeatherDisplay:10.37 W/m2 -RA
12:50 72.3 °F 70.5 °F 30.08 in Calm     94% 0.00 in WeatherDisplay:10.37 W/m2 -RA
12:55 72.1 °F 70.3 °F 30.08 in Calm   1.0 mph 94% 0.00 in WeatherDisplay:10.37 W/m2 -RA
13:00 72.0 °F 70.2 °F 30.08 in NNW 1.0 mph 2.0 mph 94% 0.00 in WeatherDisplay:10.37 W/m2 -RA
13:05 71.6 °F 69.8 °F 30.08 in Calm   1.0 mph 94% 0.00 in WeatherDisplay:10.37 W/m2 -RA
13:10 71.3 °F 69.2 °F 30.08 in NW 5.1 mph 5.1 mph 93% 0.00 in WeatherDisplay:10.37 W/m2 -RA
13:15 71.2 °F 69.4 °F 30.08 in Calm   1.0 mph 94% 0.00 in WeatherDisplay:10.37 W/m2 -RA
13:20 71.0 °F 68.9 °F 30.08 in Calm   2.0 mph 93% 0.00 in WeatherDisplay:10.37 W/m2 -RA
13:25 71.0 °F 69.2 °F 30.08 in Calm   1.0 mph 94% 0.00 in WeatherDisplay:10.37 W/m2 -RA
13:30 71.2 °F 69.4 °F 30.07 in NW 5.1 mph   94% 0.00 in WeatherDisplay:10.37 W/m2 -RA
13:35 71.2 °F 69.4 °F 30.08 in NNE 5.1 mph   94% 0.00 in WeatherDisplay:10.37 W/m2 -RA
13:40 71.4 °F 69.6 °F 30.07 in NNW 5.1 mph 5.1 mph 94% 0.00 in WeatherDisplay:10.37 W/m2 -RA
13:45 71.6 °F 69.8 °F 30.07 in North 5.1 mph   94% 0.00 in WeatherDisplay:10.37 W/m2 -RA
13:50 72.0 °F 70.2 °F 30.07 in NNE 5.1 mph   94% 0.00 in WeatherDisplay:10.37 W/m2 -RA
13:55 72.4 °F 70.6 °F 30.07 in NNW 5.1 mph   94% 0.00 in WeatherDisplay:10.37 W/m2 -RA
14:00 72.8 °F 71.0 °F 30.07 in NNW 5.1 mph   94% 0.00 in WeatherDisplay:10.37 W/m2 -RA
14:05 73.1 °F 71.3 °F 30.06 in NNW 5.1 mph   94% 0.00 in WeatherDisplay:10.37 W/m2 -RA
14:10 73.6 °F 71.8 °F 30.06 in NNW 5.1 mph   94% 0.00 in WeatherDisplay:10.37 W/m2 -RA
14:15 74.4 °F 72.6 °F 30.06 in NNW 5.1 mph 5.1 mph 94% 0.00 in WeatherDisplay:10.37 W/m2 -RA
14:20 74.4 °F 72.6 °F 30.05 in West 5.1 mph 5.1 mph 94% 0.00 in WeatherDisplay:10.37 W/m2 -RA
14:25 74.2 °F 72.4 °F 30.05 in NW 5.1 mph 5.1 mph 94% 0.00 in WeatherDisplay:10.37 W/m2 SCT
14:30 74.3 °F 72.1 °F 30.05 in NNW 5.1 mph 5.1 mph 93% 0.00 in WeatherDisplay:10.37 W/m2 SCT
14:36 74.1 °F 71.6 °F 30.05 in NE 5.1 mph   92% 0.00 in WeatherDisplay:10.37 W/m2 SCT
14:41 74.0 °F 71.2 °F 30.05 in North 5.1 mph   91% 0.00 in WeatherDisplay:10.37 W/m2 SCT
14:46 74.0 °F 71.2 °F 30.04 in NW 5.1 mph 5.1 mph 91% 0.00 in WeatherDisplay:10.37 W/m2 -RA
14:51 74.2 °F 71.4 °F 30.04 in North 5.1 mph   91% 0.00 in WeatherDisplay:10.37 W/m2 BKN
14:56 74.6 °F 71.8 °F 30.03 in NW 5.1 mph   91% 0.00 in WeatherDisplay:10.37 W/m2 BKN
15:01 75.0 °F 72.2 °F 30.03 in NW 5.1 mph   91% 0.00 in WeatherDisplay:10.37 W/m2 BKN
15:06 75.3 °F 71.8 °F 30.03 in North 5.1 mph 5.1 mph 89% 0.00 in WeatherDisplay:10.37 W/m2 BKN
15:11 75.4 °F 71.6 °F 30.03 in NE 5.1 mph 5.1 mph 88% 0.01 in WeatherDisplay:10.37 W/m2 SCT
15:16 75.3 °F 71.5 °F 30.03 in SSW 5.1 mph 5.1 mph 88% 0.01 in WeatherDisplay:10.37 W/m2 SCT
15:21 75.4 °F 71.6 °F 30.03 in WNW 5.1 mph   88% 0.01 in WeatherDisplay:10.37 W/m2 SCT
15:26 75.4 °F 71.6 °F 30.03 in NW 5.1 mph   88% 0.01 in WeatherDisplay:10.37 W/m2 SCT
15:31 75.3 °F 71.2 °F 30.03 in NW 5.1 mph   87% 0.01 in WeatherDisplay:10.37 W/m2 SCT
15:36 75.2 °F 71.1 °F 30.03 in NW 5.1 mph   87% 0.01 in WeatherDisplay:10.37 W/m2 SCT
15:41 75.2 °F 71.1 °F 30.02 in NW 5.1 mph   87% 0.01 in WeatherDisplay:10.37 W/m2 SCT
15:46 75.2 °F 71.1 °F 30.02 in NW 5.1 mph   87% 0.01 in WeatherDisplay:10.37 W/m2 SCT
15:51 75.3 °F 71.2 °F 30.02 in NW 5.1 mph   87% 0.01 in WeatherDisplay:10.37 W/m2 SCT
15:57 75.5 °F 71.7 °F 30.02 in NW 5.1 mph   88% 0.01 in WeatherDisplay:10.37 W/m2 SCT
16:02 75.7 °F 71.9 °F 30.02 in NW 5.1 mph   88% 0.01 in WeatherDisplay:10.37 W/m2 SCT
16:07 76.0 °F 72.2 °F 30.02 in NW 5.1 mph   88% 0.00 in WeatherDisplay:10.37 W/m2 SCT
16:12 76.2 °F 72.0 °F 30.02 in NW 5.1 mph   87% 0.00 in WeatherDisplay:10.37 W/m2 OVC
16:17 76.2 °F 71.7 °F 30.02 in NW 5.1 mph   86% 0.00 in WeatherDisplay:10.37 W/m2 OVC
16:22 76.5 °F 72.3 °F 30.02 in NW 5.1 mph   87% 0.00 in WeatherDisplay:10.37 W/m2 OVC
16:27 76.6 °F 72.1 °F 30.02 in NNW 5.1 mph   86% 0.00 in WeatherDisplay:10.37 W/m2 OVC
16:32 76.7 °F 72.2 °F 30.02 in NNW 5.1 mph   86% 0.00 in WeatherDisplay:10.37 W/m2 OVC
16:37 76.8 °F 72.3 °F 30.02 in NNW 5.1 mph   86% 0.00 in WeatherDisplay:10.37 W/m2 OVC
16:42 76.8 °F 71.9 °F 30.02 in NNW 5.1 mph   85% 0.00 in WeatherDisplay:10.37 W/m2 OVC
16:47 76.9 °F 72.7 °F 30.02 in NNW 5.1 mph   87% 0.00 in WeatherDisplay:10.37 W/m2 OVC
16:52 77.0 °F 73.2 °F 30.02 in NNW 5.1 mph   88% 0.00 in WeatherDisplay:10.37 W/m2 OVC
16:57 77.1 °F 73.3 °F 30.02 in NNW 5.1 mph   88% 0.00 in WeatherDisplay:10.37 W/m2 OVC
16:58 77.1 °F 73.3 °F 30.02 in NNW 5.1 mph   88% 0.00 in WeatherDisplay:10.37 W/m2 OVC
17:03 77.7 °F 73.2 °F 30.02 in West 5.1 mph 5.1 mph 86% 0.00 in WeatherDisplay:10.37 W/m2 OVC
17:08 78.4 °F 73.2 °F 30.01 in South 5.1 mph   84% 0.00 in WeatherDisplay:10.37 W/m2 OVC
17:13 78.7 °F 72.7 °F 30.02 in West 5.1 mph   82% 0.00 in WeatherDisplay:10.37 W/m2 -RA
17:18 78.3 °F 72.0 °F 30.02 in NNE 5.1 mph   81% 0.00 in WeatherDisplay:10.37 W/m2 -RA
17:23 77.9 °F 72.3 °F 30.01 in North 5.1 mph   83% 0.00 in WeatherDisplay:10.37 W/m2 OVC
17:28 77.5 °F 71.9 °F 30.02 in North 5.1 mph   83% 0.00 in WeatherDisplay:10.37 W/m2 OVC
17:33 77.3 °F 72.1 °F 30.02 in North 5.1 mph   84% 0.00 in WeatherDisplay:10.37 W/m2 OVC
17:38 77.3 °F 72.8 °F 30.02 in North 5.1 mph   86% 0.00 in WeatherDisplay:10.37 W/m2 OVC
17:43 77.1 °F 72.2 °F 30.02 in NNW 5.1 mph   85% 0.00 in WeatherDisplay:10.37 W/m2 -RA
17:48 77.0 °F 72.1 °F 30.01 in East 5.1 mph 5.1 mph 85% 0.00 in WeatherDisplay:10.37 W/m2 -RA
17:54 77.0 °F 72.5 °F 30.01 in East 5.1 mph   86% 0.00 in WeatherDisplay:10.37 W/m2 -RA
17:59 77.0 °F 72.1 °F 30.01 in North 5.1 mph   85% 0.00 in WeatherDisplay:10.37 W/m2 -RA
18:04 77.2 °F 72.3 °F 30.01 in ESE 5.1 mph 5.1 mph 85% 0.00 in WeatherDisplay:10.37 W/m2 -RA
18:09 77.7 °F 73.2 °F 30.01 in ESE 5.1 mph   86% 0.00 in WeatherDisplay:10.37 W/m2 -RA
18:10 77.9 °F 73.4 °F 30.01 in ESE 5.1 mph   86% 0.00 in WeatherDisplay:10.37 W/m2 -RA
18:15 78.2 °F 72.6 °F 30.02 in SSW 5.1 mph 5.1 mph 83% 0.00 in WeatherDisplay:10.37 W/m2 -RA
18:20 78.2 °F 73.0 °F 30.02 in North 5.1 mph 5.1 mph 84% 0.00 in WeatherDisplay:10.37 W/m2 -RA
18:25 78.1 °F 73.2 °F 30.02 in North 5.1 mph   85% 0.00 in WeatherDisplay:10.37 W/m2 -RA
18:26 78.1 °F 73.2 °F 30.02 in North 5.1 mph 5.1 mph 85% 0.00 in WeatherDisplay:10.37 W/m2 -RA
18:31 77.9 °F 73.0 °F 30.02 in NNW 5.1 mph   85% 0.00 in WeatherDisplay:10.37 W/m2 -RA
18:36 77.5 °F 72.3 °F 30.02 in NNW 5.1 mph   84% 0.00 in WeatherDisplay:10.37 W/m2 -RA
18:41 77.3 °F 72.4 °F 30.02 in NNW 5.1 mph   85% 0.00 in WeatherDisplay:10.37 W/m2 -RA
18:46 77.0 °F 71.8 °F 30.02 in WSW 5.1 mph   84% 0.00 in WeatherDisplay:10.37 W/m2 BKN
18:51 76.9 °F 71.7 °F 30.02 in WSW 5.1 mph   84% 0.00 in WeatherDisplay:10.37 W/m2 BKN
18:56 76.7 °F 71.5 °F 30.02 in WSW 5.1 mph   84% 0.00 in WeatherDisplay:10.37 W/m2 BKN
19:01 76.6 °F 71.4 °F 30.02 in West 5.1 mph 5.1 mph 84% 0.00 in WeatherDisplay:10.37 W/m2 BKN
19:06 76.5 °F 71.7 °F 30.02 in West 5.1 mph   85% 0.00 in WeatherDisplay:10.37 W/m2 BKN
19:11 76.5 °F 72.0 °F 30.02 in West 5.1 mph   86% 0.00 in WeatherDisplay:10.37 W/m2 BKN
19:16 76.4 °F 71.6 °F 30.02 in WNW 5.1 mph   85% 0.00 in WeatherDisplay:10.37 W/m2 BKN
19:21 76.2 °F 71.4 °F 30.02 in WNW 5.1 mph   85% 0.00 in WeatherDisplay:10.37 W/m2 BKN
19:27 76.2 °F 71.7 °F 30.03 in WNW 5.1 mph 5.1 mph 86% 0.01 in WeatherDisplay:10.37 W/m2 BKN
19:32 76.1 °F 71.9 °F 30.03 in WNW 5.1 mph   87% 0.01 in WeatherDisplay:10.37 W/m2 BKN
19:37 76.0 °F 71.8 °F 30.03 in WNW 5.1 mph   87% 0.01 in WeatherDisplay:10.37 W/m2 BKN
19:42 75.9 °F 71.8 °F 30.03 in NNW 5.1 mph   87% 0.01 in WeatherDisplay:10.37 W/m2 BKN
19:47 75.8 °F 72.0 °F 30.03 in NNW 5.1 mph   88% 0.01 in WeatherDisplay:10.37 W/m2 BKN
19:52 75.7 °F 71.9 °F 30.03 in NNW 5.1 mph   88% 0.01 in WeatherDisplay:10.37 W/m2 BKN
19:57 75.7 °F 71.9 °F 30.03 in NNW 5.1 mph   88% 0.01 in WeatherDisplay:10.37 W/m2 BKN
20:02 75.5 °F 72.0 °F 30.03 in NNW 5.1 mph   89% 0.01 in WeatherDisplay:10.37 W/m2 BKN
20:07 75.4 °F 71.9 °F 30.03 in NNW 5.1 mph   89% 0.01 in WeatherDisplay:10.37 W/m2 BKN
20:10 75.3 °F 71.8 °F 30.02 in NNW 5.1 mph   89% 0.01 in WeatherDisplay:10.37 W/m2 BKN
20:15 75.1 °F 71.6 °F 30.03 in NNW 5.1 mph   89% 0.01 in WeatherDisplay:10.37 W/m2 BKN
20:21 75.0 °F 71.5 °F 30.02 in NNW 5.1 mph   89% 0.01 in WeatherDisplay:10.37 W/m2 BKN
20:26 74.9 °F 71.8 °F 30.02 in NNW 5.1 mph   90% 0.00 in WeatherDisplay:10.37 W/m2 BKN
20:31 74.8 °F 71.7 °F 30.02 in NNW 5.1 mph   90% 0.00 in WeatherDisplay:10.37 W/m2 BKN
20:36 74.7 °F 71.6 °F 30.02 in NNW 5.1 mph   90% 0.00 in WeatherDisplay:10.37 W/m2 BKN
20:41 74.6 °F 71.5 °F 30.02 in NNW 5.1 mph   90% 0.00 in WeatherDisplay:10.37 W/m2 BKN
20:46 74.5 °F 71.4 °F 30.02 in NNW 5.1 mph   90% 0.00 in WeatherDisplay:10.37 W/m2 BKN
20:51 74.4 °F 71.6 °F 30.02 in NNW 5.1 mph   91% 0.00 in WeatherDisplay:10.37 W/m2 BKN
20:56 74.3 °F 71.5 °F 30.02 in NNW 5.1 mph   91% 0.00 in WeatherDisplay:10.37 W/m2 BKN
21:01 74.2 °F 71.4 °F 30.02 in NNW 5.1 mph   91% 0.00 in WeatherDisplay:10.37 W/m2 BKN
21:06 74.1 °F 71.3 °F 30.01 in NNW 5.1 mph   91% 0.00 in WeatherDisplay:10.37 W/m2 BKN
21:11 74.0 °F 71.2 °F 30.01 in NNW 5.1 mph   91% 0.00 in WeatherDisplay:10.37 W/m2 BKN
21:16 74.0 °F 71.2 °F 30.01 in NNW 5.1 mph   91% 0.00 in WeatherDisplay:10.37 W/m2 BKN
21:21 73.9 °F 71.1 °F 30.01 in NNW 5.1 mph   91% 0.00 in WeatherDisplay:10.37 W/m2 BKN
21:26 73.8 °F 71.3 °F 30.01 in NNW 5.1 mph   92% 0.00 in WeatherDisplay:10.37 W/m2 BKN
21:31 73.8 °F 71.3 °F 30.00 in NNW 5.1 mph   92% 0.00 in WeatherDisplay:10.37 W/m2 BKN
21:36 73.7 °F 71.2 °F 30.01 in NNW 5.1 mph   92% 0.00 in WeatherDisplay:10.37 W/m2 BKN
21:41 73.7 °F 71.2 °F 30.01 in NNW 5.1 mph   92% 0.00 in WeatherDisplay:10.37 W/m2 BKN
21:43 73.7 °F 71.2 °F 30.00 in NNW 5.1 mph   92% 0.00 in WeatherDisplay:10.37 W/m2 BKN
21:48 73.6 °F 71.1 °F 30.01 in NNW 5.1 mph   92% 0.00 in WeatherDisplay:10.37 W/m2 BKN
21:49 73.6 °F 71.1 °F 30.01 in NNW 5.1 mph   92% 0.00 in WeatherDisplay:10.37 W/m2 BKN
21:54 73.5 °F 71.0 °F 30.01 in NNW 5.1 mph   92% 0.00 in WeatherDisplay:10.37 W/m2 BKN
21:59 73.4 °F 70.9 °F 30.01 in NNW 5.1 mph   92% 0.00 in WeatherDisplay:10.37 W/m2 BKN
22:03 73.4 °F 70.9 °F 30.01 in NNW 5.1 mph   92% 0.00 in WeatherDisplay:10.37 W/m2 BKN
22:08 73.3 °F 70.8 °F 30.01 in NNW 5.1 mph   92% 0.00 in WeatherDisplay:10.37 W/m2 BKN
22:13 73.1 °F 70.6 °F 30.01 in NNW 5.1 mph   92% 0.00 in WeatherDisplay:10.37 W/m2 BKN
22:19 73.1 °F 70.6 °F 30.01 in NNW 5.1 mph   92% 0.00 in WeatherDisplay:10.37 W/m2 BKN
22:24 73.0 °F 70.5 °F 30.01 in NNW 5.1 mph   92% 0.00 in WeatherDisplay:10.37 W/m2 BKN
22:29 72.9 °F 70.4 °F 30.01 in NNW 5.1 mph   92% 0.00 in WeatherDisplay:10.37 W/m2 BKN
22:34 72.8 °F 70.3 °F 30.02 in NNW 5.1 mph   92% 0.00 in WeatherDisplay:10.37 W/m2 BKN
22:39 72.8 °F 70.3 °F 30.01 in NNW 5.1 mph   92% 0.00 in WeatherDisplay:10.37 W/m2 BKN
22:44 72.8 °F 70.7 °F 30.02 in NNW 5.1 mph   93% 0.00 in WeatherDisplay:10.37 W/m2 BKN
22:49 72.8 °F 70.7 °F 30.03 in NNW 5.1 mph   93% 0.00 in WeatherDisplay:10.37 W/m2 BKN
22:54 72.8 °F 70.7 °F 30.04 in NNW 5.1 mph   93% 0.00 in WeatherDisplay:10.37 W/m2 BKN
22:59 72.7 °F 70.6 °F 30.05 in NNW 5.1 mph   93% 0.00 in WeatherDisplay:10.37 W/m2 BKN
23:04 72.8 °F 70.7 °F 30.05 in NNW 5.1 mph   93% 0.00 in WeatherDisplay:10.37 W/m2 BKN
23:09 72.9 °F 70.8 °F 30.05 in NNW 5.1 mph   93% 0.00 in WeatherDisplay:10.37 W/m2 BKN
23:14 72.9 °F 70.8 °F 30.05 in NNW 5.1 mph   93% 0.00 in WeatherDisplay:10.37 W/m2 BKN
23:19 73.0 °F 70.9 °F 30.05 in NNW 5.1 mph   93% 0.00 in WeatherDisplay:10.37 W/m2 BKN
23:24 73.0 °F 70.9 °F 30.05 in NNW 5.1 mph   93% 0.00 in WeatherDisplay:10.37 W/m2 BKN
23:29 73.1 °F 71.0 °F 30.06 in NNW 5.1 mph   93% 0.00 in WeatherDisplay:10.37 W/m2 BKN
23:34 73.0 °F 70.9 °F 30.05 in NNW 5.1 mph   93% 0.00 in WeatherDisplay:10.37 W/m2 BKN
23:39 73.1 °F 71.0 °F 30.06 in NNW 5.1 mph   93% 0.00 in WeatherDisplay:10.37 W/m2 BKN
23:44 73.0 °F 70.9 °F 30.07 in NNW 5.1 mph   93% 0.00 in WeatherDisplay:10.37 W/m2 BKN
23:50 73.0 °F 70.9 °F 30.07 in NNW 5.1 mph   93% 0.00 in WeatherDisplay:10.37 W/m2 BKN
23:55 72.9 °F 70.8 °F 30.07 in Calm     93% 0.00 in WeatherDisplay:10.37 W/m2 BKN
Piedmont Bend
Compliments of Weather Underground - 4 mb